Regional Weather Roundup
Issued by NWS Kansas City/Pleasant Hill, MO

Home | Current Version | Previous Version | Text Only | Print | Product List | Glossary On
Versions: 1 2 3 4 5 6 7 8 9 10 11 12 13 14 15 16 17 18 19 20 21 22 23 24 25 26 27 28 29 30 31 32 33 34 35 36 37 38 39 40 41 42 43 44 45 46 47 48 49 50
000
ASUS43 KEAX 240511
RWREAX

WEATHER ROUNDUP FOR EASTERN KANSAS AND NORTHWEST MISSOURI
NATIONAL WEATHER SERVICE KANSAS CITY/PLEASANT HILL MO
1200 AM CDT SUN MAY 24 2015

KSZ040-057-103>105-MOZ028-029-037-043-240600-
...KANSAS CITY METROPOLITAN AREA...

CITY           SKY/WX    TMP DP  RH WIND       PRES   REMARKS
K.C. INTL      RAIN      61  60  97 E14G21    30.02F FOG
K.C. DOWNTOWN  HVY RAIN  62  60  93 E9        30.00F FOG
LEES SUMMIT    HVY RAIN  62  60  93 SE12      30.02F FOG
OLATHE - IXD   RAIN      62  61  96 E17G23    29.99F FOG
OLATHE - OJC   HVY RAIN  62  61  96 E10       30.00S FOG
LAWRENCE       RAIN      62  61  96 E13       29.98F FOG

$$

MOZ001>008-011>017-020>025-030>033-038>040-044>046-053-054-240600-
...NORTHERN AND CENTRAL MISSOURI...

CITY           SKY/WX    TMP DP  RH WIND       PRES   REMARKS
ST. JOSEPH     LGT RAIN  61  59  93 E16       30.00F
MOSBY          RAIN      61  61 100 E9        30.04F
WARRENSBURG    RAIN      61  59  94 E9        30.04F
WHITEMAN AFB   LGT RAIN  62  60  93 E5        30.05F
CLINTON        DRIZZLE   63  61  94 E9        30.04S
SEDALIA        LGT RAIN  63  58  83 E5        30.09R
WARSAW         NOT AVBL
CHILLICOTHE      N/A     62  60  93 SE5       30.10R
KIRKSVILLE     CLOUDY    65  55  70 SE5       30.11S

$$

MOZ041-047>049-056>058-063>065-088>090-097-240600-
...EASTERN AND SOUTHERN MISSOURI...

CITY           SKY/WX    TMP DP  RH WIND       PRES   REMARKS
ST. LOUIS INTL CLOUDY    70  51  51 E7        30.14S
SPIRIT OF STL  CLOUDY    63  53  70 CALM      30.11F
COLUMBIA       CLOUDY    66  53  63 SE8       30.09F
JEFFERSON CITY CLOUDY    67  52  58 SE8       30.08F
ROLLA          CLOUDY    63  52  67 SE10      30.09F
OSAGE BEACH    CLOUDY    66  54  63 SE8       30.07S
SPRINGFIELD    CLOUDY    68  58  70 SE21G29   30.04R
BRANSON        CLOUDY    66  59  77 SE14G21   30.07F
JOPLIN         RAIN      67  64  90 SE12      29.98F FOG
WEST PLAINS    MOCLDY    65  54  67 SE3       30.12F

$$

IAZ060-094-KSZ022-034>040-054-083-096-NEZ052-066-093-240600-
...KANSAS...SOUTHEAST NEBRASKA AND IOWA...

CITY           SKY/WX    TMP DP  RH WIND       PRES   REMARKS
TOPEKA         HVY RAIN  62  61  96 E14G23    29.96R FOG
MANHATTAN      CLOUDY    64  61  90 NW5       29.93R
EMPORIA        LGT RAIN  63  62  97 E16G24    29.87R
CHANUTE        HVY RAIN  66  65  96 SE10G20   29.92F FOG
WICHITA        LGT RAIN  59  58  96 S7        29.94R
OMAHA          CLOUDY    63  61  93 VRB5      30.02R
LINCOLN        CLOUDY    62  60  93 E3        30.01R
FALLS CITY     CLOUDY    62  59  90 E21G28    29.94F
LAMONI         CLOUDY    63  57  81 SE7       30.08F
DES MOINES     CLOUDY    68  53  58 SE9       30.07F

$$



USA.gov is the U.S. government's official web portal to all federal, state and local government web resources and services.